Олюдениз

Турция     36˚32′57″N   29˚06′54″E
темп.,
°C
ветер,
м/с
пор.,
м/с
влажн.,
%
обл.,
%
осадки,
мм/ч
давл.,
гПа
погр.,
м
6 декабря, вс
вс600:00+17˚св11630 0.0 1017266
03:00+17˚св22620 0.0 1017279
06:00+17˚св22610 0.0 1017202
09:00+17˚св22570 0.0 1017195
12:00+18˚ююз22540 0.0 1017348
15:00+18˚юз11550 0.0 1015422
18:00+18˚ююз12590 0.0 1015490
21:00+18˚юв22610 0.0 1016678
7 декабря, пн
пн700:00+17˚в43660 0.0 1016407
03:00+17˚в33650 0.0 1016382
06:00+17˚вюв466212 0.0 1016712
09:00+17˚в575948 0.0 1015635
12:00+19˚юв9116377 0.0 10151043
15:00+19˚юв13156763 0.1 10131263
18:00+19˚юв12136834 0.3 10131041
21:00+19˚юв9116933 0.4 1014905
8 декабря, вт
вт800:00+18˚ю56711 2.9 1015835
03:00+17˚ссз23701 4.9 1015571
06:00+17˚ссз23659 0.4 1015817
09:00+16˚сз22695 0.9 1016320
12:00+17˚зсз336473 1.3 1017522
15:00+17˚сз235986 3.6 1016431
18:00+17˚зсз336191 0.4 1017527
21:00+17˚ссз336045 0.4 1018716
9 декабря, ср
ср900:00+16˚св326325 0.0 1019285
03:00+16˚всв325913 0.0 1020184
06:00+16˚в32550 0.0 1020253
09:00+16˚в44593 0.0 1021361
12:00+18˚ю556417 0.2 10211169
15:00+18˚ю665921 0.5 10201344
18:00+17˚ююв556328 0.1 10201062
21:00+17˚ююв566440 0.4 10211134
10 декабря, чт
чт1000:00+17˚юв566394 0.1 10221051
03:00+17˚юв466396 0.2 1021999
06:00+16˚вюв566786 0.1 1020771
09:00+16˚вюв576571 0.1 1020741
12:00+18˚ююв910648 0.0 10191189
15:00+18˚ююв1314704 0.0 10171035
18:00+18˚ююв1214700 0.0 10161022
21:00+18˚юв11146633 0.0 1016943